| time (UTC) | temp C | wind direction | speed KPH | gust KPH | rain 1hr cm | rain 24hr cm | rain mn cm | humidity % | barometer mb |
| 20260502190050 | 15 | 5 | 6.4 | 16.1 | 0.00 | 0.00 | 0.00 | 38 | 978.7 |
| 20260502185545 | 15 | 360 | 4.8 | 17.7 | 0.00 | 0.00 | 0.00 | 39 | 978.7 |
| 20260502185044 | 14 | 9 | 8.0 | 17.7 | 0.00 | 0.00 | 0.00 | 40 | 978.7 |
| 20260502184544 | 14 | 152 | 4.8 | 12.9 | 0.00 | 0.00 | 0.00 | 40 | 978.6 |
| 20260502184045 | 13 | 146 | 3.2 | 11.3 | 0.00 | 0.00 | 0.00 | 42 | 978.4 |
| 20260502183541 | 13 | 202 | 4.8 | 11.3 | 0.00 | 0.00 | 0.00 | 41 | 978.4 |
| 20260502183039 | 13 | 134 | 6.4 | 11.3 | 0.00 | 0.00 | 0.00 | 43 | 978.3 |
| 20260502182539 | 13 | 360 | 4.8 | 11.3 | 0.00 | 0.00 | 0.00 | 42 | 978.3 |
| 20260502182037 | 13 | 360 | 4.8 | 9.7 | 0.00 | 0.00 | 0.00 | 42 | 978.4 |
| 20260502181539 | 12 | 143 | 3.2 | 6.4 | 0.00 | 0.00 | 0.00 | 40 | 978.5 |
| 20260502181037 | 12 | 360 | 0.0 | 11.3 | 0.00 | 0.00 | 0.00 | 40 | 978.6 |
| 20260502180537 | 12 | 109 | 4.8 | 11.3 | 0.00 | 0.00 | 0.00 | 41 | 978.6 |
| 20260502164031 | 12 | 142 | 4.8 | 9.7 | 0.00 | 0.00 | 0.00 | 39 | 978.5 |
| 20260502163530 | 12 | 190 | 3.2 | 8.0 | 0.00 | 0.00 | 0.00 | 41 | 978.5 |
| 20260502163029 | 12 | 128 | 0.0 | 6.4 | 0.00 | 0.00 | 0.00 | 41 | 978.7 |
| 20260502162528 | 11 | 139 | 1.6 | 11.3 | 0.00 | 0.00 | 0.00 | 41 | 978.7 |
| 20260502162028 | 11 | 125 | 6.4 | 11.3 | 0.00 | 0.00 | 0.00 | 44 | 978.5 |
| 20260502161525 | 11 | 140 | 6.4 | 12.9 | 0.00 | 0.00 | 0.00 | 45 | 978.3 |
| 20260502161024 | 11 | 82 | 8.0 | 14.5 | 0.00 | 0.00 | 0.00 | 46 | 978.4 |
| 20260502160525 | 10 | 93 | 11.3 | 14.5 | 0.00 | 0.00 | 0.00 | 47 | 978.2 |
| 20260502152012 | 9 | 360 | 4.8 | 6.4 | 0.00 | 0.00 | 0.00 | 49 | 978.8 |
| 20260502151533 | 8 | 133 | 3.2 | 6.4 | 0.00 | 0.00 | 0.00 | 49 | 978.8 |
| 20260502151011 | 8 | 128 | 3.2 | 8.0 | 0.00 | 0.00 | 0.00 | 49 | 978.7 |
| 20260502150509 | 8 | 155 | 0.0 | 11.3 | 0.00 | 0.00 | 0.00 | 48 | 978.9 |
| 20260502130543 | 3 | 132 | 4.8 | 14.5 | 0.00 | 0.00 | 0.00 | 52 | 979.3 |
| 20260502123542 | 2 | 121 | 6.4 | 12.9 | 0.00 | 0.00 | 0.00 | 53 | 979.5 |
| 20260502123043 | 2 | 114 | 6.4 | 12.9 | 0.00 | 0.00 | 0.00 | 54 | 979.5 |
| 20260502122541 | 2 | 360 | 6.4 | 12.9 | 0.00 | 0.00 | 0.00 | 54 | 979.6 |
| 20260502122041 | 1 | 127 | 6.4 | 11.3 | 0.00 | 0.00 | 0.00 | 54 | 979.6 |
| 20260502121641 | 1 | 360 | 6.4 | 12.9 | 0.00 | 0.00 | 0.00 | 54 | 979.6 |
| 20260502121039 | 1 | 114 | 6.4 | 14.5 | 0.00 | 0.00 | 0.00 | 54 | 980.0 |
| 20260502120609 | 1 | 134 | 9.7 | 14.5 | 0.00 | 0.00 | 0.00 | 54 | 980.0 |
| 20260502115538 | 1 | 108 | 8.0 | 14.5 | 0.00 | 0.00 | 0.00 | 54 | 980.0 |
| 20260502115037 | 1 | 127 | 6.4 | 14.5 | 0.00 | 0.00 | 0.00 | 55 | 980.1 |
| 20260502114538 | 0 | 113 | 8.0 | 12.9 | 0.00 | 0.00 | 0.00 | 55 | 980.2 |
| 20260502114036 | 0 | 122 | 6.4 | 11.3 | 0.00 | 0.00 | 0.00 | 55 | 980.2 |
| 20260502113536 | 0 | 128 | 6.4 | 9.7 | 0.00 | 0.00 | 0.00 | 55 | 980.3 |
| 20260502113046 | 0 | 123 | 4.8 | 9.7 | 0.00 | 0.00 | 0.00 | 56 | 980.4 |
| 20260502112534 | 0 | 128 | 6.4 | 9.7 | 0.00 | 0.00 | 0.00 | 56 | 980.5 |
| 20260502112034 | 0 | 123 | 6.4 | 9.7 | 0.00 | 0.00 | 0.00 | 56 | 980.6 |
| 20260502111535 | 0 | 138 | 4.8 | 9.7 | 0.00 | 0.00 | 0.00 | 55 | 980.7 |
| 20260502111033 | 0 | 115 | 4.8 | 9.7 | 0.00 | 0.00 | 0.00 | 55 | 980.6 |
| 20260502110531 | 0 | 124 | 6.4 | 9.7 | 0.00 | 0.00 | 0.00 | 55 | 980.8 |
| 20260502110036 | 0 | 129 | 4.8 | 12.9 | 0.00 | 0.00 | 0.00 | 55 | 980.8 |
| 20260502105533 | 0 | 132 | 6.4 | 12.9 | 0.00 | 0.00 | 0.00 | 55 | 980.9 |
| 20260502105030 | 0 | 123 | 4.8 | 9.7 | 0.00 | 0.00 | 0.00 | 55 | 980.8 |
| 20260502104530 | 0 | 128 | 6.4 | 11.3 | 0.00 | 0.00 | 0.00 | 55 | 981.0 |
| 20260502104029 | 0 | 360 | 6.4 | 11.3 | 0.00 | 0.00 | 0.00 | 55 | 981.1 |
| 20260502103528 | 0 | 127 | 6.4 | 11.3 | 0.00 | 0.00 | 0.00 | 55 | 981.1 |
| 20260502103027 | 0 | 360 | 6.4 | 11.3 | 0.00 | 0.00 | 0.00 | 57 | 981.4 |
| 20260502102526 | 0 | 109 | 4.8 | 6.4 | 0.00 | 0.00 | 0.00 | 57 | 981.3 |
| 20260502102024 | 0 | 109 | 4.8 | 6.4 | 0.00 | 0.00 | 0.00 | 57 | 981.4 |
| 20260502101525 | 0 | 134 | 3.2 | 8.0 | 0.00 | 0.00 | 0.00 | 57 | 981.5 |
| 20260502101022 | 0 | 103 | 4.8 | 9.7 | 0.00 | 0.00 | 0.00 | 57 | 981.6 |
| 20260502100520 | 0 | 125 | 4.8 | 9.7 | 0.00 | 0.00 | 0.00 | 57 | 981.8 |
| 20260502091512 | 1 | 108 | 4.8 | 9.7 | 0.00 | 0.00 | 0.00 | 55 | 982.3 |
| 20260502091011 | 1 | 360 | 6.4 | 8.0 | 0.00 | 0.00 | 0.00 | 55 | 982.4 |
| 20260502090516 | 1 | 127 | 4.8 | 9.7 | 0.00 | 0.00 | 0.00 | 55 | 982.4 |
| 20260502071054 | 2 | 123 | 6.4 | 14.5 | 0.00 | 0.00 | 0.00 | 51 | 983.8 |
| 20260502070554 | 3 | 118 | 8.0 | 14.5 | 0.00 | 0.00 | 0.00 | 51 | 983.9 |
| 20260502070109 | 2 | 107 | 6.4 | 14.5 | 0.00 | 0.00 | 0.00 | 51 | 983.9 |
| 20260502065553 | 2 | 105 | 6.4 | 12.9 | 0.00 | 0.00 | 0.00 | 51 | 984.0 |
| 20260502065051 | 3 | 111 | 8.0 | 14.5 | 0.00 | 0.00 | 0.00 | 50 | 984.2 |
| 20260502064604 | 3 | 103 | 8.0 | 14.5 | 0.00 | 0.00 | 0.00 | 51 | 984.3 |
| 20260502064050 | 2 | 105 | 8.0 | 14.5 | 0.00 | 0.00 | 0.00 | 53 | 984.3 |
| 20260502063550 | 2 | 108 | 4.8 | 9.7 | 0.00 | 0.00 | 0.00 | 53 | 984.4 |
| 20260502063053 | 2 | 117 | 4.8 | 12.9 | 0.00 | 0.00 | 0.00 | 53 | 984.6 |
| 20260502062549 | 2 | 130 | 4.8 | 8.0 | 0.00 | 0.00 | 0.00 | 54 | 984.6 |
| 20260502062048 | 2 | 115 | 4.8 | 9.7 | 0.00 | 0.00 | 0.00 | 54 | 984.7 |
| 20260502061545 | 2 | 121 | 4.8 | 9.7 | 0.00 | 0.00 | 0.00 | 53 | 984.8 |
| 20260502061045 | 2 | 130 | 3.2 | 11.3 | 0.00 | 0.00 | 0.00 | 53 | 985.0 |
| 20260502060544 | 2 | 108 | 4.8 | 11.3 | 0.00 | 0.00 | 0.00 | 52 | 985.0 |
| 20260502060044 | 2 | 133 | 4.8 | 11.3 | 0.00 | 0.00 | 0.00 | 53 | 985.1 |
| 20260502055546 | 2 | 123 | 4.8 | 9.7 | 0.00 | 0.00 | 0.00 | 54 | 985.1 |
| 20260502055045 | 2 | 128 | 4.8 | 9.7 | 0.00 | 0.00 | 0.00 | 54 | 985.2 |
| 20260502054541 | 2 | 114 | 4.8 | 9.7 | 0.00 | 0.00 | 0.00 | 53 | 985.3 |
| 20260502054042 | 2 | 128 | 3.2 | 11.3 | 0.00 | 0.00 | 0.00 | 53 | 985.4 |
| 20260502053539 | 2 | 146 | 3.2 | 11.3 | 0.00 | 0.00 | 0.00 | 53 | 985.4 |
| 20260502053039 | 2 | 115 | 6.4 | 8.0 | 0.00 | 0.00 | 0.00 | 53 | 985.4 |
| 20260502052538 | 2 | 133 | 3.2 | 11.3 | 0.00 | 0.00 | 0.00 | 53 | 985.5 |
| 20260502052038 | 2 | 128 | 4.8 | 11.3 | 0.00 | 0.00 | 0.00 | 52 | 985.5 |
| 20260502051536 | 3 | 360 | 6.4 | 11.3 | 0.00 | 0.00 | 0.00 | 51 | 985.7 |
| 20260502051035 | 3 | 114 | 4.8 | 12.9 | 0.00 | 0.00 | 0.00 | 51 | 985.7 |
| 20260502050534 | 3 | 110 | 6.4 | 11.3 | 0.00 | 0.00 | 0.00 | 50 | 985.7 |
| 20260502050039 | 3 | 134 | 6.4 | 11.3 | 0.00 | 0.00 | 0.00 | 49 | 985.8 |
| 20260502045532 | 3 | 360 | 3.2 | 9.7 | 0.00 | 0.00 | 0.00 | 50 | 985.9 |
| 20260502045031 | 3 | 116 | 4.8 | 8.0 | 0.00 | 0.00 | 0.00 | 49 | 986.0 |
| 20260502044532 | 4 | 127 | 4.8 | 9.7 | 0.00 | 0.00 | 0.00 | 48 | 986.0 |
| 20260502044031 | 4 | 143 | 4.8 | 12.9 | 0.00 | 0.00 | 0.00 | 47 | 986.1 |
| 20260502043531 | 4 | 115 | 4.8 | 12.9 | 0.00 | 0.00 | 0.00 | 47 | 986.0 |
| 20260502043130 | 4 | 145 | 4.8 | 11.3 | 0.00 | 0.00 | 0.00 | 47 | 986.2 |
| 20260502042530 | 4 | 125 | 4.8 | 11.3 | 0.00 | 0.00 | 0.00 | 47 | 986.1 |
| 20260502042034 | 4 | 134 | 3.2 | 8.0 | 0.00 | 0.00 | 0.00 | 49 | 986.3 |
| 20260502041531 | 5 | 128 | 3.2 | 11.3 | 0.00 | 0.00 | 0.00 | 47 | 986.3 |
| 20260502041030 | 5 | 126 | 4.8 | 11.3 | 0.00 | 0.00 | 0.00 | 46 | 986.3 |
| 20260502040529 | 5 | 125 | 6.4 | 11.3 | 0.00 | 0.00 | 0.00 | 45 | 986.4 |
| 20260502040030 | 5 | 134 | 4.8 | 11.3 | 0.00 | 0.00 | 0.00 | 47 | 986.4 |
| 20260502035530 | 5 | 107 | 4.8 | 11.3 | 0.00 | 0.00 | 0.00 | 47 | 986.5 |
| 20260502035029 | 5 | 115 | 4.8 | 8.0 | 0.00 | 0.00 | 0.00 | 48 | 986.4 |
| 20260502034529 | 5 | 128 | 3.2 | 8.0 | 0.00 | 0.00 | 0.00 | 49 | 986.4 |
| 20260502034028 | 5 | 126 | 4.8 | 9.7 | 0.00 | 0.00 | 0.00 | 48 | 986.5 |
| 20260502033530 | 5 | 115 | 4.8 | 11.3 | 0.00 | 0.00 | 0.00 | 47 | 986.4 |
| 20260502033031 | 6 | 116 | 4.8 | 11.3 | 0.00 | 0.00 | 0.00 | 46 | 986.4 |
| 20260502032530 | 6 | 148 | 4.8 | 11.3 | 0.00 | 0.00 | 0.00 | 46 | 986.4 |
| 20260502032028 | 6 | 138 | 4.8 | 11.3 | 0.00 | 0.00 | 0.00 | 44 | 986.4 |
| 20260502031528 | 7 | 144 | 3.2 | 9.7 | 0.00 | 0.00 | 0.00 | 43 | 986.4 |
| 20260502031028 | 7 | 122 | 4.8 | 9.7 | 0.00 | 0.00 | 0.00 | 41 | 986.4 |
| 20260502030527 | 8 | 183 | 6.4 | 11.3 | 0.00 | 0.00 | 0.00 | 40 | 986.4 |
| 20260502030028 | 8 | 141 | 6.4 | 12.9 | 0.00 | 0.00 | 0.00 | 40 | 986.3 |
| 20260502025527 | 8 | 108 | 4.8 | 12.9 | 0.00 | 0.00 | 0.00 | 40 | 986.2 |
| 20260502025027 | 8 | 121 | 6.4 | 12.9 | 0.00 | 0.00 | 0.00 | 40 | 986.3 |
| 20260502024527 | 8 | 146 | 4.8 | 12.9 | 0.00 | 0.00 | 0.00 | 40 | 986.1 |
| 20260502024030 | 8 | 119 | 4.8 | 12.9 | 0.00 | 0.00 | 0.00 | 39 | 986.2 |
| 20260502023527 | 9 | 136 | 8.0 | 12.9 | 0.00 | 0.00 | 0.00 | 39 | 986.2 |
| 20260502023027 | 9 | 123 | 4.8 | 16.1 | 0.00 | 0.00 | 0.00 | 39 | 986.2 |
| 20260502022526 | 9 | 121 | 9.7 | 16.1 | 0.00 | 0.00 | 0.00 | 39 | 986.0 |
| 20260502022026 | 8 | 98 | 6.4 | 12.9 | 0.00 | 0.00 | 0.00 | 42 | 986.1 |
| 20260502021526 | 8 | 111 | 4.8 | 9.7 | 0.00 | 0.00 | 0.00 | 44 | 986.0 |
| 20260502021027 | 8 | 101 | 6.4 | 11.3 | 0.00 | 0.00 | 0.00 | 43 | 986.0 |
| 20260502020527 | 8 | 360 | 6.4 | 11.3 | 0.00 | 0.00 | 0.00 | 43 | 986.0 |
| 20260502020026 | 8 | 98 | 6.4 | 9.7 | 0.00 | 0.00 | 0.00 | 44 | 986.0 |
| 20260502015527 | 8 | 96 | 6.4 | 9.7 | 0.00 | 0.00 | 0.00 | 44 | 986.0 |
| 20260502015028 | 8 | 99 | 4.8 | 9.7 | 0.00 | 0.00 | 0.00 | 44 | 986.1 |
| 20260502014525 | 9 | 96 | 4.8 | 9.7 | 0.00 | 0.00 | 0.00 | 44 | 986.1 |
| 20260502014025 | 10 | 92 | 4.8 | 9.7 | 0.00 | 0.00 | 0.00 | 43 | 986.1 |
| 20260502013524 | 10 | 94 | 4.8 | 9.7 | 0.00 | 0.00 | 0.00 | 42 | 986.2 |
| 20260502013025 | 11 | 92 | 4.8 | 14.5 | 0.00 | 0.00 | 0.00 | 40 | 986.2 |
| 20260502012524 | 11 | 96 | 6.4 | 14.5 | 0.00 | 0.00 | 0.00 | 36 | 986.2 |
| 20260502012024 | 11 | 99 | 6.4 | 11.3 | 0.00 | 0.00 | 0.00 | 37 | 986.2 |
| 20260502011524 | 11 | 97 | 4.8 | 11.3 | 0.00 | 0.00 | 0.00 | 39 | 986.2 |
| 20260502011023 | 12 | 97 | 4.8 | 11.3 | 0.00 | 0.00 | 0.00 | 36 | 986.2 |
| 20260502010523 | 12 | 95 | 6.4 | 9.7 | 0.00 | 0.00 | 0.00 | 37 | 986.2 |
| 20260502010023 | 12 | 98 | 6.4 | 9.7 | 0.00 | 0.00 | 0.00 | 35 | 986.2 |
| 20260502005527 | 12 | 102 | 4.8 | 9.7 | 0.00 | 0.00 | 0.00 | 35 | 986.3 |
| 20260502005022 | 13 | 99 | 4.8 | 9.7 | 0.00 | 0.00 | 0.00 | 34 | 986.3 |
| 20260502004522 | 13 | 105 | 8.0 | 14.5 | 0.00 | 0.00 | 0.00 | 33 | 986.3 |
| 20260502004021 | 13 | 98 | 6.4 | 14.5 | 0.00 | 0.00 | 0.00 | 31 | 986.3 |
| 20260502003521 | 13 | 103 | 8.0 | 14.5 | 0.00 | 0.00 | 0.00 | 32 | 986.2 |
| 20260502003021 | 13 | 105 | 9.7 | 12.9 | 0.00 | 0.00 | 0.00 | 29 | 986.4 |
| 20260502002520 | 13 | 118 | 6.4 | 17.7 | 0.00 | 0.00 | 0.00 | 31 | 986.4 |
| 20260502002025 | 13 | 96 | 8.0 | 17.7 | 0.00 | 0.00 | 0.00 | 31 | 986.4 |
| 20260502001521 | 13 | 105 | 8.0 | 14.5 | 0.00 | 0.00 | 0.00 | 30 | 986.5 |
| 20260502001019 | 13 | 92 | 9.7 | 14.5 | 0.00 | 0.00 | 0.00 | 29 | 986.5 |
| 20260502000520 | 14 | 110 | 8.0 | 14.5 | 0.00 | 0.00 | 0.00 | 29 | 986.5 |
| 20260502000020 | 14 | 108 | 8.0 | 16.1 | 0.00 | 0.00 | 0.00 | 28 | 986.7 |
| 20260501235519 | 14 | 111 | 9.7 | 16.1 | 0.00 | 0.00 | 0.00 | 28 | 986.6 |
| 20260501235018 | 14 | 116 | 6.4 | 14.5 | 0.00 | 0.00 | 0.00 | 27 | 986.6 |
| 20260501234518 | 14 | 360 | 3.2 | 8.0 | 0.00 | 0.00 | 0.00 | 26 | 986.7 |
| 20260501234018 | 14 | 150 | 1.6 | 8.0 | 0.00 | 0.00 | 0.00 | 26 | 986.9 |
| 20260501233518 | 14 | 360 | 3.2 | 14.5 | 0.00 | 0.00 | 0.00 | 27 | 987.0 |
| 20260501233017 | 14 | 117 | 6.4 | 14.5 | 0.00 | 0.00 | 0.00 | 27 | 986.9 |
| 20260501232518 | 14 | 87 | 3.2 | 9.7 | 0.00 | 0.00 | 0.00 | 27 | 986.9 |
| 20260501232016 | 14 | 88 | 6.4 | 12.9 | 0.00 | 0.00 | 0.00 | 27 | 987.1 |
| 20260501231516 | 14 | 360 | 4.8 | 12.9 | 0.00 | 0.00 | 0.00 | 27 | 987.2 |
| 20260501231016 | 14 | 53 | 3.2 | 12.9 | 0.00 | 0.00 | 0.00 | 27 | 987.1 |
| 20260501230517 | 14 | 88 | 3.2 | 9.7 | 0.00 | 0.00 | 0.00 | 27 | 987.1 |
| 20260501230015 | 14 | 128 | 3.2 | 11.3 | 0.00 | 0.00 | 0.00 | 27 | 987.2 |
| 20260501225516 | 14 | 86 | 1.6 | 11.3 | 0.00 | 0.00 | 0.00 | 27 | 987.2 |
| 20260501225013 | 14 | 80 | 6.4 | 11.3 | 0.00 | 0.00 | 0.00 | 26 | 987.2 |
| 20260501224513 | 14 | 138 | 1.6 | 6.4 | 0.00 | 0.00 | 0.00 | 27 | 987.3 |
| 20260501224014 | 14 | 165 | 0.0 | 8.0 | 0.00 | 0.00 | 0.00 | 26 | 987.4 |
| 20260501223513 | 14 | 348 | 3.2 | 8.0 | 0.00 | 0.00 | 0.00 | 27 | 987.4 |
| 20260501223012 | 14 | 147 | 1.6 | 8.0 | 0.00 | 0.00 | 0.00 | 26 | 987.5 |
| 20260501222512 | 14 | 194 | 3.2 | 12.9 | 0.00 | 0.00 | 0.00 | 28 | 987.6 |
| 20260501222013 | 14 | 102 | 6.4 | 12.9 | 0.00 | 0.00 | 0.00 | 27 | 987.7 |
| 20260501221513 | 15 | 86 | 3.2 | 11.3 | 0.00 | 0.00 | 0.00 | 26 | 987.7 |
| 20260501221011 | 14 | 143 | 0.0 | 8.0 | 0.00 | 0.00 | 0.00 | 26 | 987.8 |
| 20260501220508 | 14 | 142 | 3.2 | 11.3 | 0.00 | 0.00 | 0.00 | 26 | 987.8 |
| 20260501220021 | 13 | 221 | 4.8 | 11.3 | 0.00 | 0.00 | 0.00 | 26 | 987.9 |
| 20260501215512 | 14 | 22 | 3.2 | 6.4 | 0.00 | 0.00 | 0.00 | 26 | 988.0 |
| 20260501215007 | 13 | 360 | 0.0 | 16.1 | 0.00 | 0.00 | 0.00 | 28 | 988.0 |
| 20260501214507 | 13 | 267 | 4.8 | 14.5 | 0.00 | 0.00 | 0.00 | 28 | 988.2 |
| 20260501214007 | 13 | 341 | 1.6 | 8.0 | 0.00 | 0.00 | 0.00 | 27 | 988.1 |
| 20260501213506 | 13 | 292 | 4.8 | 8.0 | 0.00 | 0.00 | 0.00 | 28 | 988.3 |
| 20260501213004 | 13 | 11 | 3.2 | 6.4 | 0.00 | 0.00 | 0.00 | 27 | 988.4 |
| 20260501212505 | 13 | 60 | 0.0 | 12.9 | 0.00 | 0.00 | 0.00 | 27 | 988.5 |
| 20260501212004 | 13 | 217 | 8.0 | 12.9 | 0.00 | 0.00 | 0.00 | 26 | 988.5 |
| 20260501211508 | 13 | 227 | 4.8 | 12.9 | 0.00 | 0.00 | 0.00 | 28 | 988.5 |
| 20260501211003 | 13 | 216 | 4.8 | 12.9 | 0.00 | 0.00 | 0.00 | 29 | 988.4 |
| 20260501210501 | 13 | 24 | 3.2 | 8.0 | 0.00 | 0.00 | 0.00 | 28 | 988.5 |
| 20260501210000 | 13 | 360 | 1.6 | 12.9 | 0.00 | 0.00 | 0.00 | 29 | 988.6 |
| 20260501205602 | 13 | 5 | 3.2 | 12.9 | 0.00 | 0.00 | 0.00 | 28 | 988.6 |
| 20260501205059 | 13 | 341 | 3.2 | 12.9 | 0.00 | 0.00 | 0.00 | 27 | 988.7 |
| 20260501204559 | 12 | 5 | 4.8 | 12.9 | 0.00 | 0.00 | 0.00 | 28 | 988.8 |
| 20260501204057 | 12 | 129 | 3.2 | 16.1 | 0.00 | 0.00 | 0.00 | 27 | 988.8 |
| 20260501203558 | 12 | 244 | 4.8 | 16.1 | 0.00 | 0.00 | 0.00 | 27 | 989.0 |
| 20260501203101 | 12 | 236 | 3.2 | 16.1 | 0.00 | 0.00 | 0.00 | 28 | 988.9 |
| 20260501202557 | 12 | 202 | 3.2 | 9.7 | 0.00 | 0.00 | 0.00 | 28 | 988.9 |
| 20260501202057 | 12 | 80 | 3.2 | 9.7 | 0.00 | 0.00 | 0.00 | 28 | 988.9 |
| 20260501201557 | 12 | 213 | 0.0 | 6.4 | 0.00 | 0.00 | 0.00 | 29 | 988.9 |
| 20260501201055 | 12 | 121 | 1.6 | 14.5 | 0.00 | 0.00 | 0.00 | 27 | 989.0 |
| 20260501200554 | 12 | 180 | 3.2 | 14.5 | 0.00 | 0.00 | 0.00 | 28 | 989.0 |
| 20260501200054 | 12 | 90 | 6.4 | 12.9 | 0.00 | 0.00 | 0.00 | 28 | 989.1 |
| 20260501195553 | 12 | 51 | 6.4 | 16.1 | 0.00 | 0.00 | 0.00 | 29 | 989.1 |
| 20260501195053 | 12 | 142 | 4.8 | 14.5 | 0.00 | 0.00 | 0.00 | 30 | 989.1 |
| 20260501194559 | 12 | 108 | 8.0 | 14.5 | 0.00 | 0.00 | 0.00 | 29 | 989.0 |
| 20260501194051 | 12 | 105 | 3.2 | 17.7 | 0.00 | 0.00 | 0.00 | 30 | 989.1 |
| 20260501193553 | 11 | 285 | 0.0 | 17.7 | 0.00 | 0.00 | 0.00 | 29 | 989.1 |
| 20260501193050 | 11 | 336 | 4.8 | 9.7 | 0.00 | 0.00 | 0.00 | 28 | 989.1 |
| 20260501192549 | 11 | 44 | 3.2 | 14.5 | 0.00 | 0.00 | 0.00 | 29 | 989.1 |
| 20260501192052 | 11 | 101 | 6.4 | 14.5 | 0.00 | 0.00 | 0.00 | 31 | 989.2 |
| 20260501191552 | 11 | 153 | 1.6 | 12.9 | 0.00 | 0.00 | 0.00 | 29 | 989.2 |
| 20260501191049 | 11 | 360 | 6.4 | 12.9 | 0.00 | 0.00 | 0.00 | 29 | 989.3 |
| 20260501190547 | 11 | 46 | 4.8 | 12.9 | 0.00 | 0.00 | 0.00 | 30 | 989.3 |